Temp
-11 -11 -11 -11 -11 -12 -12 -12 -12 -12 -12 -11 -12 -12 -12 -12 -12 -13 -12 -13 -13 -13 -13 -13 -13 -13 -13 -13 -13 -13 -14 -14 -14 -13 -13 -13 -13 -13 -13 -13 -13 -12 -12
-11 -11 -11 -11 -11 -11 -11 -11 -11 -12 -12 -12 -11 -12 -12 -12 -12 -13 -13 -12 -13 -12 -13 -13 -13 -13 -13 -14 -13 -13 -14 -14 -14 -14 -13 -13 -13 -13 -13 -13 -12 -12 -12
-11 -11 -11 -11 -11 -11 -11 -11 -12 -12 -12 -11 -12 -12 -12 -12 -12 -13 -13 -12 -12 -12 -12 -12 -12 -13 -13 -13 -13 -13 -13 -14 -14 -14 -13 -13 -13 -13 -13 -13 -12 -12 -13
-11 -11 -11 -11 -11 -11 -11 -11 -12 -12 -11 -11 -11 -12 -12 -12 -12 -12 -12 -12 -12 -12 -12 -12 -12 -13 -13 -13 -13 -13 -13 -14 -14 -14 -13 -13 -13 -13 -13 -13 -12 -12 -12
-11 -11 -11 -11 -11 -11 -11 -11 -11 -12 -12 -12 -12 -12 -12 -12 -12 -13 -12 -12 -12 -12 -12 -12 -12 -12 -12 -13 -13 -13 -13 -13 -13 -13 -13 -13 -13 -13 -13 -13 -12 -11 -12
-11 -11 -11 -11 -11 -11 -11 -11 -12 -12 -12 -12 -12 -12 -12 -12 -12 -13 -12 -12 -12 -12 -12 -12 -12 -12 -12 -12 -12 -12 -13 -13 -13 -13 -13 -13 -13 -13 -12 -12 -12 -12 -12
-10 -11 -11 -11 -11 -11 -11 -11 -11 -12 -12 -12 -12 -12 -12 -12 -12 -12 -13 -12 -12 -12 -12 -12 -12 -12 -12 -12 -12 -12 -12 -12 -12 -13 -13 -13 -12 -12 -12 -12 -12 -12 -12
-10 -11 -11 -11 -11 -11 -11 -11 -11 -12 -12 -12 -13 -13 -12 -12 -12 -12 -13 -12 -12 -12 -12 -12 -12 -12 -12 -12 -11 -11 -11 -11 -11 -12 -12 -12 -12 -12 -12 -12 -12 -12 -12
-10 -11 -11 -11 -11 -11 -11 -11 -11 -11 -12 -12 -12 -13 -12 -12 -12 -12 -12 -13 -12 -12 -12 -12 -12 -12 -12 -12 -12 -12 -11 -11 -11 -12 -12 -12 -12 -12 -12 -12 -13 -13 -13
-11 -11 -11 -12 -11 -11 -11 -11 -11 -11 -11 -12 -12 -12 -12 -12 -12 -12 -12 -12 -12 -12 -12 -11 -12 -12 -11 -11 -11 -12 -12 -12 -11 -11 -11 -12 -12 -12 -12 -12 -13 -13 -13
-11 -11 -11 -11 -12 -11 -12 -12 -11 -11 -11 -12 -12 -13 -12 -12 -12 -12 -12 -12 -12 -12 -12 -11 -11 -11 -11 -11 -11 -12 -12 -12 -11 -11 -12 -12 -12 -12 -13 -13 -13 -13 -12
-11 -11 -11 -11 -11 -12 -12 -12 -12 -11 -11 -11 -12 -12 -12 -12 -12 -12 -12 -12 -12 -11 -11 -11 -11 -12 -12 -12 -12 -12 -12 -12 -11 -12 -12 -12 -12 -13 -13 -13 -12 -13 -13
-11 -11 -11 -12 -12 -12 -12 -12 -11 -11 -11 -11 -11 -12 -12 -13 -12 -12 -12 -11 -11 -11 -11 -11 -11 -11 -11 -12 -12 -12 -12 -12 -11 -11 -12 -12 -13 -13 -13 -13 -13 -13 -13
-11 -11 -11 -12 -12 -12 -12 -12 -12 -12 -11 -11 -12 -12 -12 -12 -12 -12 -12 -12 -11 -11 -11 -11 -11 -11 -11 -12 -12 -12 -12 -12 -12 -12 -12 -13 -13 -13 -13 -13 -13 -13 -13
-12 -12 -12 -12 -12 -12 -12 -12 -12 -13 -13 -12 -12 -12 -12 -12 -12 -12 -12 -12 -12 -12 -12 -12 -11 -11 -12 -12 -12 -12 -12 -12 -12 -13 -13 -13 -13 -13 -13 -13 -13 -13 -13
-12 -12 -12 -12 -12 -12 -12 -12 -12 -12 -12 -12 -12 -12 -12 -11 -12 -13 -13 -13 -12 -12 -12 -12 -12 -12 -12 -12 -13 -13 -13 -13 -13 -12 -12 -13 -13 -13 -13 -13 -13 -13 -14
-12 -12 -12 -12 -12 -12 -12 -12 -12 -12 -12 -12 -12 -12 -12 -12 -13 -13 -13 -12 -12 -12 -12 -12 -12 -12 -12 -12 -12 -12 -12 -12 -12 -12 -12 -12 -12 -12 -13 -13 -13 -13 -13
-12 -12 -11 -12 -12 -12 -12 -12 -12 -13 -13 -13 -13 -13 -13 -12 -13 -13 -12 -12 -12 -12 -12 -12 -12 -12 -12 -12 -13 -13 -13 -12 -12 -12 -12 -13 -13 -13 -13 -13 -13 -14 -14
-13 -12 -12 -11 -12 -12 -12 -12 -13 -13 -13 -13 -13 -13 -13 -13 -13 -12 -13 -13 -13 -13 -13 -13 -13 -13 -13 -13 -13 -13 -13 -13 -13 -13 -13 -13 -13 -13 -13 -13 -14 -14 -14
-13 -12 -12 -12 -11 -12 -12 -12 -12 -13 -13 -13 -13 -13 -13 -13 -13 -13 -12 -12 -12 -13 -13 -13 -13 -13 -12 -12 -13 -13 -13 -13 -13 -13 -13 -13 -13 -13 -13 -14 -14 -14 -14
-13 -13 -13 -12 -12 -11 -11 -12 -12 -12 -12 -13 -13 -13 -13 -13 -13 -13 -13 -13 -13 -13 -13 -13 -13 -13 -13 -13 -13 -13 -13 -14 -14 -14 -13 -13 -14 -14 -14 -15 -15 -15 -15
-12 -12 -13 -13 -12 -12 -12 -12 -12 -12 -12 -12 -12 -12 -12 -13 -13 -13 -13 -13 -13 -13 -13 -13 -13 -13 -13 -13 -13 -14 -14 -14 -14 -14 -14 -14 -14 -14 -14 -14 -14 -14 -14
-13 -12 -12 -13 -13 -12 -12 -12 -12 -12 -12 -12 -12 -12 -12 -12 -12 -12 -12 -12 -13 -13 -13 -13 -13 -13 -13 -13 -13 -13 -13 -13 -13 -13 -14 -14 -14 -14 -14 -14 -14 -14 -14
-13 -13 -13 -13 -12 -12 -12 -12 -12 -12 -13 -12 -12 -12 -12 -12 -12 -12 -12 -13 -13 -13 -13 -13 -13 -13 -13 -13 -13 -13 -13 -14 -14 -14 -14 -14 -14 -14 -14 -14 -14 -14 -14
-13 -13 -13 -12 -12 -13 -12 -12 -12 -12 -12 -13 -13 -13 -12 -12 -12 -13 -12 -12 -13 -13 -13 -13 -13 -13 -13 -13 -13 -13 -13 -14 -14 -14 -14 -15 -14 -14 -14 -14 -14 -14 -14
-13 -13 -13 -13 -13 -13 -13 -13 -13 -13 -12 -12 -13 -13 -13 -13 -12 -12 -13 -13 -13 -13 -13 -13 -13 -13 -13 -13 -13 -13 -13 -13 -13 -13 -13 -14 -14 -14 -14 -14 -14 -14 -14
Height
5725 5723 5722 5720 5718 5715 5713 5711 5709 5707 5706 5706 5707 5707 5706 5704 5702 5699 5695 5694 5692 5690 5690 5690 5690 5690 5689 5690 5692 5694 5698 5702 5707 5712 5716 5721 5725 5731 5736 5741 5748 5755 5761
5721 5720 5718 5716 5714 5712 5711 5708 5706 5705 5705 5705 5706 5706 5705 5703 5701 5698 5697 5694 5692 5690 5688 5687 5689 5689 5688 5689 5691 5693 5697 5701 5705 5711 5716 5721 5726 5731 5736 5742 5748 5754 5760
5719 5717 5715 5713 5712 5710 5707 5705 5704 5703 5704 5705 5705 5705 5704 5703 5701 5699 5698 5695 5693 5690 5689 5687 5689 5690 5690 5691 5693 5695 5698 5701 5705 5711 5716 5721 5726 5732 5737 5743 5749 5756 5759
5715 5714 5712 5711 5709 5707 5705 5704 5703 5702 5703 5703 5704 5705 5704 5703 5702 5701 5698 5696 5695 5693 5691 5690 5690 5691 5692 5692 5694 5696 5699 5702 5706 5712 5716 5722 5727 5732 5737 5744 5750 5755 5759
5713 5712 5710 5708 5707 5705 5704 5703 5702 5702 5702 5702 5703 5703 5703 5703 5703 5702 5700 5698 5697 5694 5693 5691 5692 5692 5693 5694 5695 5698 5700 5704 5708 5713 5717 5722 5729 5734 5740 5746 5750 5754 5758
5711 5709 5707 5706 5704 5704 5703 5701 5701 5701 5701 5701 5702 5702 5703 5703 5704 5703 5701 5700 5699 5697 5697 5695 5694 5694 5694 5694 5695 5697 5700 5705 5709 5714 5719 5725 5730 5734 5741 5745 5749 5754 5759
5709 5707 5705 5704 5702 5702 5701 5700 5700 5699 5699 5699 5699 5701 5702 5703 5704 5704 5702 5702 5701 5701 5700 5699 5698 5698 5698 5697 5698 5699 5701 5704 5708 5714 5720 5726 5731 5737 5743 5747 5751 5757 5762
5708 5705 5704 5703 5702 5701 5700 5699 5700 5699 5697 5697 5698 5700 5702 5702 5704 5706 5704 5704 5703 5703 5703 5703 5702 5702 5701 5702 5703 5706 5707 5709 5712 5717 5722 5729 5734 5739 5744 5749 5755 5760 5764
5707 5705 5704 5703 5701 5700 5700 5698 5699 5699 5697 5696 5697 5699 5701 5703 5705 5707 5706 5706 5707 5706 5707 5707 5706 5706 5707 5707 5710 5712 5715 5717 5719 5722 5726 5731 5737 5743 5749 5754 5758 5762 5764
5707 5705 5704 5703 5702 5701 5700 5698 5697 5697 5697 5697 5698 5699 5701 5704 5706 5708 5709 5709 5710 5710 5710 5710 5710 5711 5712 5714 5714 5718 5722 5725 5728 5729 5731 5736 5741 5746 5751 5755 5759 5763 5765
5707 5705 5704 5704 5704 5703 5701 5699 5697 5695 5695 5695 5696 5699 5702 5705 5708 5709 5711 5711 5712 5712 5712 5712 5712 5714 5716 5718 5720 5722 5726 5730 5733 5735 5739 5743 5747 5750 5754 5758 5760 5764 5767
5707 5706 5705 5705 5705 5705 5703 5702 5698 5696 5695 5693 5695 5699 5702 5706 5709 5710 5713 5713 5714 5715 5716 5716 5716 5717 5719 5722 5725 5729 5732 5735 5737 5740 5744 5747 5750 5753 5758 5761 5763 5764 5766
5706 5706 5706 5706 5707 5706 5704 5703 5700 5697 5696 5695 5698 5700 5704 5707 5709 5712 5715 5715 5715 5717 5718 5720 5721 5721 5723 5725 5729 5732 5736 5739 5742 5743 5746 5750 5754 5757 5759 5761 5763 5765 5767
5707 5707 5707 5708 5708 5707 5707 5707 5704 5700 5700 5700 5703 5705 5706 5709 5711 5714 5716 5717 5718 5718 5720 5722 5723 5725 5727 5730 5733 5735 5739 5741 5744 5748 5750 5753 5755 5758 5760 5761 5763 5764 5766
5707 5707 5709 5709 5710 5710 5710 5710 5709 5707 5706 5707 5707 5708 5708 5711 5714 5717 5719 5720 5721 5723 5723 5726 5728 5729 5732 5735 5738 5740 5744 5746 5748 5750 5752 5755 5757 5759 5761 5763 5764 5764 5765
5708 5709 5710 5712 5713 5713 5713 5714 5714 5714 5714 5714 5714 5712 5707 5711 5716 5720 5723 5725 5727 5729 5730 5732 5734 5736 5737 5739 5742 5746 5747 5749 5751 5754 5756 5758 5759 5761 5762 5763 5765 5766 5766
5708 5709 5712 5714 5715 5715 5717 5719 5720 5720 5721 5721 5720 5718 5719 5719 5723 5725 5729 5731 5732 5734 5736 5737 5739 5741 5743 5745 5747 5749 5751 5753 5755 5757 5759 5760 5761 5762 5764 5764 5765 5765 5765
5708 5709 5712 5714 5715 5717 5719 5721 5722 5724 5726 5726 5726 5726 5726 5726 5728 5730 5732 5734 5736 5738 5739 5740 5742 5743 5745 5746 5749 5751 5753 5755 5757 5758 5760 5761 5762 5763 5763 5763 5763 5763 5761
5707 5710 5711 5713 5716 5719 5720 5722 5724 5726 5727 5729 5730 5731 5731 5732 5732 5733 5735 5737 5738 5740 5742 5743 5744 5745 5747 5749 5751 5753 5754 5756 5757 5759 5759 5760 5761 5761 5761 5761 5760 5759 5757
5706 5709 5711 5713 5715 5718 5721 5723 5725 5727 5728 5730 5731 5732 5734 5735 5736 5737 5738 5740 5741 5742 5743 5744 5745 5747 5748 5750 5752 5754 5755 5756 5756 5757 5758 5759 5759 5759 5758 5758 5757 5755 5754
5704 5707 5710 5712 5714 5717 5719 5722 5724 5726 5728 5729 5731 5733 5735 5736 5737 5739 5740 5741 5743 5744 5745 5746 5747 5749 5750 5752 5753 5753 5754 5755 5756 5756 5755 5755 5754 5754 5753 5753 5752 5751 5749
5703 5706 5708 5711 5713 5715 5717 5719 5721 5723 5725 5727 5729 5731 5733 5735 5737 5739 5739 5741 5742 5743 5745 5746 5747 5749 5749 5751 5752 5753 5754 5753 5753 5754 5753 5753 5752 5752 5751 5750 5749 5747 5746
5700 5703 5705 5707 5710 5712 5714 5716 5718 5719 5721 5724 5726 5728 5730 5732 5733 5735 5737 5738 5740 5741 5742 5743 5744 5745 5746 5748 5748 5748 5748 5748 5748 5749 5748 5748 5748 5748 5746 5745 5743 5741 5739
5695 5697 5700 5703 5705 5708 5709 5711 5713 5716 5717 5718 5720 5723 5725 5726 5728 5730 5731 5733 5735 5735 5737 5738 5740 5740 5741 5742 5742 5743 5743 5743 5743 5742 5742 5741 5740 5739 5737 5735 5734 5732 5729
5689 5692 5694 5697 5700 5703 5705 5706 5708 5710 5712 5714 5716 5716 5719 5721 5723 5724 5725 5726 5728 5729 5731 5732 5733 5733 5734 5735 5735 5735 5735 5734 5733 5732 5732 5731 5730 5729 5728 5726 5724 5722 5720
5680 5683 5686 5690 5692 5695 5698 5701 5703 5704 5705 5708 5710 5712 5712 5714 5716 5718 5719 5721 5722 5722 5723 5725 5725 5726 5727 5727 5728 5727 5727 5726 5725 5723 5722 5721 5721 5720 5718 5717 5716 5714 5712
Wind_Speed
14 14 16 18 19 19 15 10 9 9 8 7 4 6 1 4 8 12 5 6 6 5 2 4 6 8 9 12 13 18 18 20 20 21 22 19 24 23 23 23 20 17 17
12 14 17 18 16 14 10 8 7 8 6 7 3 3 1 5 9 7 5 6 8 7 3 6 8 6 11 10 12 17 19 19 20 19 21 21 22 24 23 20 18 20 15
12 15 15 13 10 8 8 6 6 6 4 7 6 3 3 3 5 6 7 9 10 7 5 4 6 8 7 14 13 15 17 18 20 19 21 23 23 24 24 25 28 30 24
12 14 10 8 6 8 9 5 6 5 6 6 5 2 2 2 2 3 7 8 9 8 7 6 7 8 8 9 13 14 17 19 20 20 23 25 28 27 30 27 30 22 20
11 8 8 9 5 4 6 4 3 4 2 7 6 2 1 2 1 6 6 5 6 6 12 8 8 6 6 8 12 16 16 18 21 23 27 29 29 29 27 26 20 23 24
8 8 8 6 4 3 5 4 4 4 3 4 8 7 4 3 5 4 6 8 8 14 13 15 9 10 10 9 11 12 16 16 21 26 27 25 27 23 21 25 25 25 23
8 6 3 2 2 3 4 5 6 7 4 5 6 4 5 5 8 2 7 8 8 9 11 12 13 11 11 11 15 20 23 24 23 20 21 25 29 25 22 20 25 26 24
5 4 5 5 4 4 1 2 4 9 4 4 6 4 6 8 10 5 7 8 9 10 13 14 12 12 12 14 20 28 27 33 38 37 34 34 36 30 30 28 27 24 18
3 4 6 6 8 5 2 2 2 4 7 2 6 9 9 11 10 7 7 8 9 9 7 7 11 14 16 18 21 24 24 30 34 35 36 36 36 34 27 25 20 16 15
0 4 5 5 9 7 4 2 3 3 3 3 7 9 10 13 8 7 8 7 7 7 7 8 8 11 15 19 21 23 24 26 25 34 37 36 33 28 25 23 24 25 21
1 4 6 5 7 7 9 8 7 5 3 4 10 11 13 14 10 8 8 7 7 7 7 8 10 15 18 18 22 25 23 23 27 32 30 29 25 24 24 24 24 20 16
2 4 6 5 5 7 12 13 14 7 7 4 13 17 15 14 10 10 9 7 9 9 9 10 16 16 18 18 23 23 29 30 31 27 24 21 26 27 24 21 18 16 13
3 3 4 3 4 6 10 12 16 13 12 12 18 17 16 15 12 12 11 9 9 11 12 12 11 12 19 23 21 25 26 26 22 24 29 30 25 22 19 17 14 12 10
4 5 5 5 5 6 9 12 16 16 18 20 18 14 14 15 14 13 13 12 15 16 15 15 14 16 21 23 20 25 21 22 29 27 25 23 20 18 15 12 10 8 7
6 6 8 9 7 8 10 12 16 21 20 20 19 12 9 15 16 12 14 13 16 18 17 16 17 22 22 20 22 25 25 25 21 19 19 17 16 13 11 10 9 6 2
7 8 8 10 10 12 14 16 19 21 22 22 22 24 21 17 19 18 23 23 20 20 20 21 20 23 25 26 25 22 21 19 18 16 14 13 12 11 9 6 5 3 5
9 9 9 9 11 13 16 17 18 19 19 18 20 23 25 28 24 26 22 18 17 16 15 15 15 15 15 15 14 15 14 13 14 13 12 12 9 5 3 2 4 6 9
11 10 10 10 10 12 13 15 15 13 12 14 16 18 19 19 19 18 17 16 15 14 12 12 12 12 13 15 15 15 15 14 11 9 6 4 4 2 3 7 8 7 9
10 11 11 10 11 11 12 11 11 11 10 10 10 12 14 16 16 15 15 13 14 13 12 11 10 9 9 9 8 8 8 7 6 4 3 2 4 5 7 8 8 8 10
14 12 12 12 11 11 12 13 13 11 8 7 6 7 8 10 11 12 12 12 11 10 8 9 9 9 10 11 10 8 6 4 3 3 4 5 6 7 8 8 10 11 13
15 14 13 13 13 13 12 12 13 13 12 10 7 4 3 6 8 8 7 7 9 10 8 8 8 10 11 11 10 9 8 7 7 10 10 11 10 11 12 13 15 17 18
14 16 16 14 14 14 14 13 13 13 13 13 12 10 8 6 6 5 5 6 6 6 7 7 9 9 10 11 11 10 10 11 14 16 17 18 18 18 18 19 19 19 20
17 17 16 17 17 17 16 16 16 16 16 15 14 13 13 13 11 10 9 7 7 7 7 7 7 8 10 11 12 14 15 17 18 18 16 17 18 20 21 21 22 24 25
25 23 20 18 18 20 20 20 20 20 19 19 18 17 17 17 17 16 16 15 15 15 14 13 13 13 14 15 16 17 18 20 22 23 22 22 23 24 26 26 27 29 30
26 27 28 25 25 24 24 23 23 22 22 22 22 23 22 21 21 21 22 21 21 21 21 21 21 20 21 22 21 22 23 23 24 25 27 27 27 28 30 31 33 33 32
30 31 30 31 30 29 29 27 27 27 25 23 23 23 24 23 24 24 23 23 23 22 22 21 21 21 22 21 21 22 24 26 28 30 31 32 32 33 35 36 35 36 37
Wind_Direction
284 291 297 297 302 307 313 309 311 320 311 284 276 289 285 320 328 348 5 359 352 360 240 206 222 206 208 213 197 197 177 189 189 192 192 183 179 176 183 191 183 177 184
288 294 293 302 305 303 309 314 324 323 297 258 260 277 292 309 335 1 15 30 16 351 340 258 221 214 171 165 174 170 182 186 179 189 181 175 179 179 175 174 158 168 183
286 291 301 304 305 325 332 338 322 315 255 237 249 224 222 277 16 52 45 30 21 24 41 23 162 179 188 153 152 162 168 171 166 177 177 173 173 172 169 166 164 179 195
293 302 303 294 313 339 346 350 308 311 238 237 233 180 160 190 82 25 0 23 32 30 45 88 134 128 162 167 157 163 161 160 159 170 169 167 167 165 161 166 168 180 175
299 305 296 296 299 324 338 336 359 322 258 236 221 232 328 216 160 24 15 51 59 63 76 94 111 118 145 169 177 182 185 178 171 169 165 167 165 165 166 173 177 188 184
298 297 293 278 260 269 304 315 318 317 299 231 231 246 272 168 193 17 65 104 74 78 90 88 100 113 113 133 165 180 187 192 175 180 173 172 168 170 148 148 160 156 162
301 311 329 342 333 264 286 287 322 332 303 239 228 231 220 172 178 134 69 111 88 98 96 92 95 108 115 127 132 133 139 143 145 159 154 149 151 153 158 152 151 144 147
300 350 35 32 7 33 244 237 5 8 15 220 212 189 180 169 167 137 90 89 92 108 109 94 91 103 102 122 132 135 126 128 132 132 138 142 144 140 142 138 142 144 144
308 38 60 50 41 41 165 175 356 22 41 71 165 161 166 162 155 140 108 92 106 124 107 75 89 107 110 122 127 138 131 135 132 134 136 136 136 137 137 136 139 152 154
251 84 70 53 51 47 62 31 326 342 41 115 157 159 160 162 159 149 122 114 104 105 107 97 116 121 126 131 126 134 137 146 139 137 132 135 136 136 142 150 150 146 138
162 99 80 65 64 70 68 43 25 3 68 164 167 160 158 160 156 142 134 120 111 109 107 95 133 138 139 138 131 130 139 143 140 131 128 130 133 135 139 144 141 141 142
143 99 85 69 65 80 77 55 46 59 66 114 172 158 158 163 162 150 131 119 117 119 116 106 123 123 145 143 134 137 133 137 136 136 135 141 142 142 140 140 140 140 134
140 98 73 75 81 76 69 53 42 77 73 107 141 145 143 143 144 141 127 118 117 126 120 118 140 129 139 146 149 155 148 147 145 147 149 148 144 138 143 142 139 129 126
136 105 87 88 87 81 75 68 55 73 94 113 120 126 140 145 142 143 137 123 131 127 131 121 123 133 147 140 145 150 146 139 141 144 144 143 143 143 142 134 129 141 158
135 107 97 97 91 88 88 86 85 79 94 107 110 108 148 152 145 135 133 124 111 110 122 136 139 131 122 132 137 137 141 141 142 145 142 142 145 142 139 148 160 180 217
149 122 108 109 105 101 99 101 99 94 93 97 92 78 84 146 142 124 124 122 119 117 117 118 119 126 135 137 138 143 148 148 147 151 150 142 138 141 144 166 195 249 281
166 142 128 127 119 112 112 113 107 98 92 86 84 85 85 91 106 120 121 110 105 107 107 109 115 120 122 127 134 141 145 147 144 140 134 134 137 147 178 260 278 260 255
174 167 150 145 139 135 132 131 125 112 103 95 92 94 97 105 111 115 118 120 120 116 114 117 122 126 132 134 136 131 127 127 130 136 144 155 168 208 272 259 264 273 293
178 176 172 163 158 160 154 154 155 145 132 118 108 102 102 106 110 119 123 125 125 121 119 114 115 137 143 140 133 135 145 148 152 167 164 221 255 243 238 252 275 294 307
175 183 180 179 176 175 175 177 181 181 179 167 150 132 123 119 117 121 131 141 147 151 146 138 129 125 130 136 138 152 175 197 223 260 262 262 262 263 275 287 294 302 300
183 180 192 191 190 192 189 191 200 206 205 209 213 219 174 143 141 137 131 146 160 166 172 176 181 181 177 177 180 189 211 228 246 263 274 282 292 292 288 287 286 289 294
202 197 192 199 203 204 205 209 213 213 217 220 221 225 225 210 206 212 207 184 165 190 201 205 212 221 231 233 238 251 265 279 286 288 290 289 289 292 298 297 292 292 296
220 220 210 206 207 216 215 214 215 228 231 226 227 228 229 230 226 218 218 228 239 235 222 218 218 225 233 243 250 258 266 271 274 286 292 290 287 284 290 296 294 293 294
229 231 229 233 225 218 218 218 219 217 228 241 242 231 229 232 230 233 234 231 228 228 224 229 234 240 245 251 255 259 259 261 264 269 276 280 283 288 293 296 298 299 302
229 233 236 233 229 233 234 233 229 224 221 228 238 247 246 238 235 236 235 236 237 238 238 240 244 247 247 247 251 255 260 264 270 274 278 281 282 284 287 292 296 297 299
230 227 232 237 237 235 232 235 238 237 234 230 234 236 241 246 247 247 246 246 248 248 248 248 248 248 251 257 263 268 271 272 272 271 272 276 281 286 289 289 289 291 294